Time,TemperatureF,DewpointF,PressureIn,WindDirection,WindDirectionDegrees,WindSpeedMPH,WindSpeedGustMPH,Humidity,HourlyPrecipIn,Conditions,Clouds,dailyrainin,SolarRadiationWatts/m^2,SoftwareType,DateUTC
2013-06-05 00:00:00,60.4,36.0,30.21,East,79,3.0,5.0,40,0.00,CLR,OVC,0.00,0.0,WeatherDisplay:10.37,2013-06-05 04:00:00,
2013-06-05 00:01:00,60.4,36.0,30.21,ENE,68,3.6,4.6,40,0.00,CLR,OVC,0.00,0.0,WeatherDisplay:10.37,2013-06-05 04:01:00,
2013-06-05 00:02:00,60.4,36.0,30.21,East,90,4.0,4.6,40,0.00,CLR,OVC,0.00,0.0,WeatherDisplay:10.37,2013-06-05 04:02:00,
2013-06-05 00:07:00,60.3,35.8,30.18,ESE,112,3.1,3.5,40,0.00,CLR,OVC,0.00,0.0,WeatherDisplay:10.37,2013-06-05 04:07:00,
2013-06-05 00:12:00,60.1,35.7,30.18,ENE,68,3.3,4.7,40,0.00,CLR,OVC,0.00,0.0,WeatherDisplay:10.37,2013-06-05 04:12:00,
2013-06-05 00:17:00,60.1,35.7,30.18,East,90,2.6,4.6,40,0.00,CLR,OVC,0.00,0.0,WeatherDisplay:10.37,2013-06-05 04:17:00,
2013-06-05 00:22:00,60.1,34.4,30.18,ENE,68,3.3,4.6,38,0.00,CLR,OVC,0.00,0.0,WeatherDisplay:10.37,2013-06-05 04:22:00,
2013-06-05 00:27:00,59.9,34.2,30.18,ENE,68,3.3,4.6,38,0.00,CLR,OVC,0.00,0.0,WeatherDisplay:10.37,2013-06-05 04:27:00,
2013-06-05 00:32:00,59.7,34.0,30.18,SE,135,2.9,4.6,38,0.00,CLR,OVC,0.00,0.0,WeatherDisplay:10.37,2013-06-05 04:32:00,
2013-06-05 00:37:00,59.7,34.0,30.18,ESE,112,3.8,4.6,38,0.00,CLR,OVC,0.00,0.0,WeatherDisplay:10.37,2013-06-05 04:37:00,
2013-06-05 00:42:00,59.7,34.0,30.18,ESE,112,3.6,4.6,38,0.00,CLR,OVC,0.00,0.0,WeatherDisplay:10.37,2013-06-05 04:42:00,
2013-06-05 00:47:00,59.5,33.9,30.18,East,90,3.1,3.5,38,0.00,CLR,OVC,0.00,0.0,WeatherDisplay:10.37,2013-06-05 04:47:00,
2013-06-05 00:52:00,59.5,33.9,30.18,ESE,112,2.6,3.5,38,0.00,CLR,OVC,0.00,0.0,WeatherDisplay:10.37,2013-06-05 04:52:00,
2013-06-05 00:57:00,59.4,33.7,30.18,ENE,68,2.2,3.5,38,0.00,CLR,OVC,0.00,0.0,WeatherDisplay:10.37,2013-06-05 04:57:00,
2013-06-05 01:02:00,59.4,33.7,30.18,East,90,3.1,3.6,38,0.00,CLR,OVC,0.00,0.0,WeatherDisplay:10.37,2013-06-05 05:02:00,
2013-06-05 01:07:00,59.2,33.6,30.18,East,90,2.9,3.5,38,0.00,CLR,OVC,0.00,0.0,WeatherDisplay:10.37,2013-06-05 05:07:00,
2013-06-05 01:12:00,59.2,33.6,30.18,East,90,2.9,3.6,38,0.00,CLR,OVC,0.00,0.0,WeatherDisplay:10.37,2013-06-05 05:12:00,
2013-06-05 01:17:00,59.0,33.4,30.18,East,90,2.4,2.4,38,0.00,CLR,OVC,0.00,0.0,WeatherDisplay:10.37,2013-06-05 05:17:00,
2013-06-05 01:22:00,59.0,33.4,30.18,ENE,68,2.0,2.6,38,0.00,CLR,OVC,0.00,0.0,WeatherDisplay:10.37,2013-06-05 05:22:00,
2013-06-05 01:27:00,58.8,33.2,30.18,NE,45,2.6,3.1,38,0.00,CLR,OVC,0.00,0.0,WeatherDisplay:10.37,2013-06-05 05:27:00,
2013-06-05 01:32:00,58.6,33.1,30.18,ENE,68,2.4,3.1,38,0.00,CLR,OVC,0.00,0.0,WeatherDisplay:10.37,2013-06-05 05:32:00,
2013-06-05 01:37:00,58.5,32.9,30.18,ENE,68,2.4,2.9,38,0.00,CLR,OVC,0.00,0.0,WeatherDisplay:10.37,2013-06-05 05:37:00,
2013-06-05 01:42:00,58.5,32.9,30.18,ENE,68,2.0,2.3,38,0.00,CLR,OVC,0.00,0.0,WeatherDisplay:10.37,2013-06-05 05:42:00,
2013-06-05 01:47:00,58.5,32.9,30.18,ESE,112,2.0,2.3,38,0.00,CLR,OVC,0.00,0.0,WeatherDisplay:10.37,2013-06-05 05:47:00,
2013-06-05 01:52:00,58.3,32.8,30.18,ESE,112,2.2,2.3,38,0.00,CLR,OVC,0.00,0.0,WeatherDisplay:10.37,2013-06-05 05:52:00,
2013-06-05 01:57:00,58.3,32.8,30.18,East,90,0.0,1.2,38,0.00,CLR,OVC,0.00,0.0,WeatherDisplay:10.37,2013-06-05 05:57:00,
2013-06-05 02:03:00,58.1,32.6,30.18,ENE,68,1.2,1.2,38,0.00,CLR,OVC,0.00,0.0,WeatherDisplay:10.37,2013-06-05 06:03:00,
2013-06-05 02:08:00,57.9,32.4,30.18,ENE,68,1.6,1.6,38,0.00,CLR,OVC,0.00,0.0,WeatherDisplay:10.37,2013-06-05 06:08:00,
2013-06-05 02:13:00,57.9,33.7,30.18,ENE,68,0.0,1.2,40,0.00,CLR,OVC,0.00,0.0,WeatherDisplay:10.37,2013-06-05 06:13:00,
2013-06-05 02:18:00,57.6,33.4,30.18,ENE,68,0.0,0.0,40,0.00,CLR,OVC,0.00,0.0,WeatherDisplay:10.37,2013-06-05 06:18:00,
2013-06-05 02:23:00,57.6,33.4,30.18,ENE,68,2.2,2.4,40,0.00,CLR,OVC,0.00,0.0,WeatherDisplay:10.37,2013-06-05 06:23:00,
2013-06-05 02:28:00,57.6,33.4,30.18,NE,45,2.0,2.3,40,0.00,CLR,OVC,0.00,0.0,WeatherDisplay:10.37,2013-06-05 06:28:00,
2013-06-05 02:33:00,57.4,33.2,30.18,ENE,68,2.2,2.6,40,0.00,CLR,OVC,0.00,0.0,WeatherDisplay:10.37,2013-06-05 06:33:00,
2013-06-05 02:38:00,57.4,33.2,30.18,ENE,68,2.2,2.3,40,0.00,CLR,OVC,0.00,0.0,WeatherDisplay:10.37,2013-06-05 06:38:00,
2013-06-05 02:43:00,57.4,33.2,30.18,ENE,68,1.6,3.5,40,0.00,CLR,OVC,0.00,0.0,WeatherDisplay:10.37,2013-06-05 06:43:00,
2013-06-05 02:48:00,57.2,33.1,30.18,ENE,68,2.2,2.6,40,0.00,CLR,OVC,0.00,0.0,WeatherDisplay:10.37,2013-06-05 06:48:00,
2013-06-05 02:53:00,57.2,33.1,30.18,East,90,2.2,3.5,40,0.00,CLR,OVC,0.00,0.0,WeatherDisplay:10.37,2013-06-05 06:53:00,
2013-06-05 02:58:00,57.2,33.1,30.18,ENE,68,2.2,2.3,40,0.00,CLR,OVC,0.00,0.0,WeatherDisplay:10.37,2013-06-05 06:58:00,
2013-06-05 03:03:00,57.0,33.5,30.18,ENE,68,2.4,3.5,41,0.00,CLR,OVC,0.00,0.0,WeatherDisplay:10.37,2013-06-05 07:03:00,
2013-06-05 03:08:00,57.0,33.5,30.18,NE,45,1.4,2.3,41,0.00,CLR,OVC,0.00,0.0,WeatherDisplay:10.37,2013-06-05 07:08:00,
2013-06-05 03:13:00,56.7,33.2,30.18,NNE,22,0.9,1.2,41,0.00,CLR,OVC,0.00,0.0,WeatherDisplay:10.37,2013-06-05 07:13:00,
2013-06-05 03:18:00,56.3,32.9,30.15,NNE,22,2.2,2.6,41,0.00,CLR,OVC,0.00,0.0,WeatherDisplay:10.37,2013-06-05 07:18:00,
2013-06-05 03:23:00,55.9,32.6,30.15,NNE,22,2.6,3.5,41,0.00,CLR,OVC,0.00,0.0,WeatherDisplay:10.37,2013-06-05 07:23:00,
2013-06-05 03:28:00,55.8,32.4,30.15,NNE,22,1.6,2.3,41,0.00,CLR,OVC,0.00,0.0,WeatherDisplay:10.37,2013-06-05 07:28:00,
2013-06-05 03:33:00,55.6,32.2,30.18,North,0,1.4,2.3,41,0.00,CLR,OVC,0.00,0.0,WeatherDisplay:10.37,2013-06-05 07:33:00,
2013-06-05 03:38:00,55.6,32.2,30.18,North,0,0.0,0.0,41,0.00,CLR,OVC,0.00,0.0,WeatherDisplay:10.37,2013-06-05 07:38:00,
2013-06-05 03:43:00,55.4,32.1,30.18,NNE,22,0.0,1.2,41,0.00,CLR,OVC,0.00,0.0,WeatherDisplay:10.37,2013-06-05 07:43:00,
2013-06-05 03:48:00,55.4,32.1,30.15,NNE,22,2.2,2.4,41,0.00,CLR,OVC,0.00,0.0,WeatherDisplay:10.37,2013-06-05 07:48:00,
2013-06-05 03:53:00,55.6,32.2,30.15,NE,45,2.2,3.5,41,0.00,CLR,OVC,0.00,0.0,WeatherDisplay:10.37,2013-06-05 07:53:00,
2013-06-05 03:58:00,55.6,32.2,30.15,NE,45,3.6,4.6,41,0.00,CLR,OVC,0.00,0.0,WeatherDisplay:10.37,2013-06-05 07:58:00,
2013-06-05 04:03:00,55.4,32.1,30.21,NE,45,4.7,6.9,41,0.00,CLR,OVC,0.00,0.0,WeatherDisplay:10.37,2013-06-05 08:03:00,
2013-06-05 04:08:00,55.4,32.1,30.21,ENE,68,3.1,4.6,41,0.00,CLR,OVC,0.00,0.0,WeatherDisplay:10.37,2013-06-05 08:08:00,
2013-06-05 04:13:00,55.4,32.1,30.21,NE,45,3.1,4.6,41,0.00,CLR,OVC,0.00,0.0,WeatherDisplay:10.37,2013-06-05 08:13:00,
2013-06-05 04:18:00,55.4,32.1,30.18,NNE,22,3.3,4.6,41,0.00,CLR,OVC,0.00,0.0,WeatherDisplay:10.37,2013-06-05 08:18:00,
2013-06-05 04:23:00,55.2,31.9,30.18,NE,45,4.9,6.9,41,0.00,CLR,OVC,0.00,0.0,WeatherDisplay:10.37,2013-06-05 08:23:00,
2013-06-05 04:28:00,55.2,31.9,30.18,NE,45,2.9,4.0,41,0.00,CLR,OVC,0.00,0.0,WeatherDisplay:10.37,2013-06-05 08:28:00,
2013-06-05 04:33:00,55.2,31.9,30.18,NE,45,3.1,3.5,41,0.00,CLR,OVC,0.00,0.0,WeatherDisplay:10.37,2013-06-05 08:33:00,
2013-06-05 04:38:00,55.2,31.9,30.18,NE,45,3.6,4.6,41,0.00,CLR,OVC,0.00,0.0,WeatherDisplay:10.37,2013-06-05 08:38:00,
2013-06-05 04:43:00,55.2,31.9,30.18,NE,45,3.6,4.6,41,0.00,CLR,OVC,0.00,0.0,WeatherDisplay:10.37,2013-06-05 08:43:00,
2013-06-05 04:48:00,55.2,31.9,30.18,NE,45,3.6,6.9,41,0.00,CLR,OVC,0.00,0.0,WeatherDisplay:10.37,2013-06-05 08:48:00,
2013-06-05 04:53:00,55.2,31.9,30.18,NE,45,3.6,4.9,41,0.00,CLR,OVC,0.00,0.0,WeatherDisplay:10.37,2013-06-05 08:53:00,
2013-06-05 04:58:00,55.2,31.9,30.18,NE,45,4.0,4.6,41,0.00,CLR,OVC,0.00,0.0,WeatherDisplay:10.37,2013-06-05 08:58:00,
2013-06-05 05:03:00,55.2,31.9,30.18,NE,45,4.5,5.8,41,0.00,CLR,OVC,0.00,0.0,WeatherDisplay:10.37,2013-06-05 09:03:00,
2013-06-05 05:08:00,55.2,31.9,30.18,NE,45,4.3,5.8,41,0.00,CLR,OVC,0.00,0.0,WeatherDisplay:10.37,2013-06-05 09:08:00,
2013-06-05 05:13:00,55.2,31.9,30.18,ENE,68,3.3,4.3,41,0.00,CLR,OVC,0.00,0.0,WeatherDisplay:10.37,2013-06-05 09:13:00,
2013-06-05 05:18:00,55.2,31.9,30.18,NE,45,3.6,4.5,41,0.00,CLR,OVC,0.00,0.0,WeatherDisplay:10.37,2013-06-05 09:18:00,
2013-06-05 05:23:00,55.2,31.9,30.18,NE,45,4.0,4.6,41,0.00,CLR,OVC,0.00,0.0,WeatherDisplay:10.37,2013-06-05 09:23:00,
2013-06-05 05:28:00,55.2,33.7,30.18,ENE,68,3.3,4.6,44,0.00,CLR,OVC,0.00,0.0,WeatherDisplay:10.37,2013-06-05 09:28:00,
2013-06-05 05:33:00,55.2,33.7,30.18,NE,45,3.3,4.6,44,0.00,CLR,OVC,0.00,0.0,WeatherDisplay:10.37,2013-06-05 09:33:00,
2013-06-05 05:38:00,55.0,31.7,30.18,ENE,68,4.3,5.8,41,0.00,CLR,OVC,0.00,0.0,WeatherDisplay:10.37,2013-06-05 09:38:00,
2013-06-05 05:43:00,55.0,31.7,30.18,ENE,68,4.3,5.4,41,0.00,CLR,OVC,0.00,0.0,WeatherDisplay:10.37,2013-06-05 09:43:00,
2013-06-05 05:48:00,55.0,31.7,30.18,NE,45,4.0,4.6,41,0.00,CLR,OVC,0.00,0.0,WeatherDisplay:10.37,2013-06-05 09:48:00,
2013-06-05 05:53:00,55.0,31.7,30.18,NE,45,3.1,6.0,41,0.00,CLR,OVC,0.00,0.0,WeatherDisplay:10.37,2013-06-05 09:53:00,
2013-06-05 05:58:00,55.0,33.5,30.18,NE,45,3.1,4.6,44,0.00,CLR,OVC,0.00,0.0,WeatherDisplay:10.37,2013-06-05 09:58:00,
2013-06-05 06:03:00,54.9,33.3,30.18,NE,45,3.6,5.6,44,0.00,CLR,OVC,0.00,0.0,WeatherDisplay:10.37,2013-06-05 10:03:00,
2013-06-05 06:08:00,54.9,33.3,30.18,NE,45,4.9,5.8,44,0.00,CLR,OVC,0.00,0.0,WeatherDisplay:10.37,2013-06-05 10:08:00,
2013-06-05 06:14:00,54.7,33.2,30.18,NE,45,5.6,7.4,44,0.00,CLR,OVC,0.00,0.0,WeatherDisplay:10.37,2013-06-05 10:14:00,
2013-06-05 06:19:00,54.7,33.2,30.18,NE,45,4.0,5.8,44,0.00,CLR,OVC,0.00,0.0,WeatherDisplay:10.37,2013-06-05 10:19:00,
2013-06-05 06:24:00,54.7,33.2,30.18,NNE,22,4.5,5.8,44,0.00,CLR,OVC,0.00,0.0,WeatherDisplay:10.37,2013-06-05 10:24:00,
2013-06-05 06:29:00,54.5,33.0,30.18,NE,45,4.5,6.9,44,0.00,CLR,OVC,0.00,0.0,WeatherDisplay:10.37,2013-06-05 10:29:00,
2013-06-05 06:34:00,54.5,33.0,30.21,NE,45,5.9,8.1,44,0.00,CLR,OVC,0.00,0.0,WeatherDisplay:10.37,2013-06-05 10:34:00,
2013-06-05 06:39:00,54.5,33.0,30.21,East,90,3.3,4.6,44,0.00,CLR,OVC,0.00,0.0,WeatherDisplay:10.37,2013-06-05 10:39:00,
2013-06-05 06:44:00,54.5,33.0,30.21,NE,45,4.5,5.6,44,0.00,CLR,OVC,0.00,0.0,WeatherDisplay:10.37,2013-06-05 10:44:00,
2013-06-05 06:49:00,54.5,33.0,30.15,NE,45,4.7,6.9,44,0.00,CLR,OVC,0.00,0.0,WeatherDisplay:10.37,2013-06-05 10:49:00,
2013-06-05 06:54:00,54.5,33.0,30.15,NE,45,4.3,5.8,44,0.00,CLR,OVC,0.00,0.0,WeatherDisplay:10.37,2013-06-05 10:54:00,
2013-06-05 06:59:00,54.5,33.0,30.15,NE,45,4.0,5.8,44,0.00,CLR,OVC,0.00,0.0,WeatherDisplay:10.37,2013-06-05 10:59:00,
2013-06-05 07:04:00,54.5,33.0,30.18,NE,45,4.0,6.0,44,0.00,CLR,OVC,0.00,0.0,WeatherDisplay:10.37,2013-06-05 11:04:00,
2013-06-05 07:09:00,54.7,33.2,30.18,NE,45,3.8,5.8,44,0.00,CLR,OVC,0.00,0.0,WeatherDisplay:10.37,2013-06-05 11:09:00,
2013-06-05 07:14:00,54.9,33.3,30.18,ENE,68,4.7,6.9,44,0.00,CLR,OVC,0.00,0.0,WeatherDisplay:10.37,2013-06-05 11:14:00,
2013-06-05 07:19:00,55.0,33.5,30.15,ENE,68,4.0,5.8,44,0.00,CLR,OVC,0.00,0.0,WeatherDisplay:10.37,2013-06-05 11:19:00,
2013-06-05 07:24:00,55.0,33.5,30.15,NE,45,4.3,8.1,44,0.00,CLR,OVC,0.00,0.0,WeatherDisplay:10.37,2013-06-05 11:24:00,
2013-06-05 07:29:00,55.2,33.7,30.15,ENE,68,4.5,4.6,44,0.00,CLR,OVC,0.00,0.0,WeatherDisplay:10.37,2013-06-05 11:29:00,
2013-06-05 07:34:00,55.4,34.9,30.15,NE,45,4.0,5.8,46,0.00,CLR,OVC,0.00,100.0,WeatherDisplay:10.37,2013-06-05 11:34:00,
2013-06-05 07:39:00,55.9,35.4,30.15,NNE,22,4.7,5.8,46,0.00,CLR,OVC,0.00,100.0,WeatherDisplay:10.37,2013-06-05 11:39:00,
2013-06-05 07:44:00,56.7,36.1,30.15,ENE,68,4.9,6.9,46,0.00,CLR,OVC,0.00,100.0,WeatherDisplay:10.37,2013-06-05 11:44:00,
2013-06-05 07:49:00,57.0,36.4,30.18,ENE,68,4.5,5.9,46,0.00,CLR,OVC,0.00,100.0,WeatherDisplay:10.37,2013-06-05 11:49:00,
2013-06-05 07:54:00,57.0,36.4,30.18,ENE,68,4.3,4.6,46,0.00,CLR,OVC,0.00,100.0,WeatherDisplay:10.37,2013-06-05 11:54:00,
2013-06-05 07:59:00,57.0,36.4,30.18,ENE,68,4.7,5.8,46,0.00,CLR,OVC,0.00,100.0,WeatherDisplay:10.37,2013-06-05 11:59:00,
2013-06-05 08:04:00,57.4,36.2,30.18,NNE,22,5.9,6.9,45,0.00,CLR,OVC,0.00,100.0,WeatherDisplay:10.37,2013-06-05 12:04:00,
2013-06-05 08:09:00,57.6,36.4,30.18,NE,45,6.2,9.0,45,0.00,CLR,OVC,0.00,100.0,WeatherDisplay:10.37,2013-06-05 12:09:00,
2013-06-05 08:14:00,57.6,36.4,30.18,ENE,68,6.4,8.1,45,0.00,CLR,OVC,0.00,100.0,WeatherDisplay:10.37,2013-06-05 12:14:00,
2013-06-05 08:19:00,57.9,36.7,30.18,NE,45,4.5,8.1,45,0.00,CLR,OVC,0.00,100.0,WeatherDisplay:10.37,2013-06-05 12:19:00,
2013-06-05 08:24:00,58.1,36.9,30.18,NE,45,4.3,4.6,45,0.00,CLR,OVC,0.00,100.0,WeatherDisplay:10.37,2013-06-05 12:24:00,
2013-06-05 08:29:00,58.8,37.5,30.18,NE,45,3.6,5.8,45,0.00,CLR,OVC,0.00,200.0,WeatherDisplay:10.37,2013-06-05 12:29:00,
2013-06-05 08:34:00,60.1,38.7,30.18,NE,45,4.3,5.8,45,0.00,CLR,OVC,0.00,200.0,WeatherDisplay:10.37,2013-06-05 12:34:00,
2013-06-05 08:39:00,61.5,40.0,30.18,NE,45,4.0,6.9,45,0.00,CLR,OVC,0.00,300.0,WeatherDisplay:10.37,2013-06-05 12:39:00,
2013-06-05 08:44:00,62.2,40.6,30.18,ENE,68,4.9,5.9,45,0.00,CLR,OVC,0.00,200.0,WeatherDisplay:10.37,2013-06-05 12:44:00,
2013-06-05 08:49:00,61.9,38.5,30.18,ENE,68,5.6,7.6,42,0.00,CLR,OVC,0.00,200.0,WeatherDisplay:10.37,2013-06-05 12:49:00,
2013-06-05 08:54:00,61.5,38.2,30.18,NNE,22,3.6,5.8,42,0.00,CLR,OVC,0.00,200.0,WeatherDisplay:10.37,2013-06-05 12:54:00,
2013-06-05 08:59:00,61.5,38.2,30.18,ENE,68,5.6,5.8,42,0.00,CLR,OVC,0.00,200.0,WeatherDisplay:10.37,2013-06-05 12:59:00,
2013-06-05 09:04:00,62.1,38.7,30.18,ENE,68,3.1,4.6,42,0.00,CLR,OVC,0.00,300.0,WeatherDisplay:10.37,2013-06-05 13:04:00,
2013-06-05 09:09:00,62.2,38.8,30.18,NE,45,4.0,5.4,42,0.00,CLR,OVC,0.00,200.0,WeatherDisplay:10.37,2013-06-05 13:09:00,
2013-06-05 09:14:00,62.2,38.8,30.18,East,90,4.7,6.9,42,0.00,CLR,OVC,0.00,300.0,WeatherDisplay:10.37,2013-06-05 13:14:00,
2013-06-05 09:19:00,62.6,39.2,30.18,NE,45,4.3,5.8,42,0.00,CLR,OVC,0.00,400.0,WeatherDisplay:10.37,2013-06-05 13:19:00,
2013-06-05 09:24:00,63.5,40.0,30.18,ESE,112,3.3,4.6,42,0.00,CLR,OVC,0.00,500.0,WeatherDisplay:10.37,2013-06-05 13:24:00,
2013-06-05 09:29:00,64.2,40.6,30.18,NE,45,3.8,8.1,42,0.00,CLR,OVC,0.00,500.0,WeatherDisplay:10.37,2013-06-05 13:29:00,
2013-06-05 09:34:00,64.4,40.2,30.18,ENE,68,5.9,8.1,41,0.00,CLR,OVC,0.00,600.0,WeatherDisplay:10.37,2013-06-05 13:34:00,
2013-06-05 09:39:00,64.4,40.2,30.18,ENE,68,7.4,9.2,41,0.00,CLR,OVC,0.00,600.0,WeatherDisplay:10.37,2013-06-05 13:39:00,
2013-06-05 09:44:00,64.8,40.5,30.18,NE,45,3.6,4.7,41,0.00,CLR,OVC,0.00,500.0,WeatherDisplay:10.37,2013-06-05 13:44:00,
2013-06-05 09:49:00,65.1,40.8,30.18,NNE,22,3.3,5.9,41,0.00,CLR,OVC,0.00,800.0,WeatherDisplay:10.37,2013-06-05 13:49:00,
2013-06-05 09:54:00,65.5,41.1,30.18,ENE,68,4.9,6.9,41,0.00,CLR,OVC,0.00,700.0,WeatherDisplay:10.37,2013-06-05 13:54:00,
2013-06-05 09:59:00,65.8,41.5,30.18,ENE,68,4.3,5.8,41,0.00,CLR,OVC,0.00,800.0,WeatherDisplay:10.37,2013-06-05 13:59:00,
2013-06-05 10:04:00,66.4,42.0,30.15,ENE,68,5.6,8.1,41,0.00,CLR,OVC,0.00,700.0,WeatherDisplay:10.37,2013-06-05 14:04:00,
2013-06-05 10:09:00,66.6,42.1,30.15,East,90,3.8,6.0,41,0.00,CLR,OVC,0.00,800.0,WeatherDisplay:10.37,2013-06-05 14:09:00,
2013-06-05 10:14:00,66.9,42.4,30.15,NNE,22,4.3,6.4,41,0.00,CLR,OVC,0.00,900.0,WeatherDisplay:10.37,2013-06-05 14:14:00,
2013-06-05 10:19:00,67.3,42.8,30.18,ENE,68,4.3,4.6,41,0.00,CLR,OVC,0.00,800.0,WeatherDisplay:10.37,2013-06-05 14:19:00,
2013-06-05 10:24:00,67.3,42.8,30.18,ENE,68,3.6,5.9,41,0.00,CLR,OVC,0.00,900.0,WeatherDisplay:10.37,2013-06-05 14:24:00,
2013-06-05 10:29:00,67.3,40.8,30.18,ENE,68,5.9,8.1,38,0.00,CLR,OVC,0.00,900.0,WeatherDisplay:10.37,2013-06-05 14:29:00,
2013-06-05 10:34:00,67.3,42.8,30.18,ENE,68,4.9,5.8,41,0.00,CLR,OVC,0.00,900.0,WeatherDisplay:10.37,2013-06-05 14:34:00,
2013-06-05 10:39:00,67.5,42.9,30.18,NE,45,3.8,10.2,41,0.00,CLR,OVC,0.00,1000.0,WeatherDisplay:10.37,2013-06-05 14:39:00,
2013-06-05 10:44:00,67.5,41.0,30.18,NE,45,4.0,5.8,38,0.00,CLR,OVC,0.00,1000.0,WeatherDisplay:10.37,2013-06-05 14:44:00,
2013-06-05 10:50:00,67.6,43.1,30.15,East,90,4.7,8.1,41,0.00,CLR,OVC,0.00,1100.0,WeatherDisplay:10.37,2013-06-05 14:50:00,
2013-06-05 10:55:00,67.8,43.2,30.15,ENE,68,6.2,10.4,41,0.00,CLR,OVC,0.00,1100.0,WeatherDisplay:10.37,2013-06-05 14:55:00,
2013-06-05 11:00:00,67.8,43.2,30.15,ENE,68,7.4,9.2,41,0.00,CLR,OVC,0.00,1200.0,WeatherDisplay:10.37,2013-06-05 15:00:00,
2013-06-05 11:05:00,67.6,41.1,30.15,NE,45,9.4,12.7,38,0.00,CLR,OVC,0.00,1200.0,WeatherDisplay:10.37,2013-06-05 15:05:00,
2013-06-05 11:10:00,67.8,43.2,30.15,ESE,112,6.4,6.9,41,0.00,CLR,OVC,0.00,1200.0,WeatherDisplay:10.37,2013-06-05 15:10:00,
2013-06-05 11:15:00,68.2,43.6,30.15,NNE,22,3.8,5.8,41,0.00,CLR,OVC,0.00,1200.0,WeatherDisplay:10.37,2013-06-05 15:15:00,
2013-06-05 11:20:00,68.2,43.6,30.12,NE,45,7.1,9.2,41,0.00,CLR,OVC,0.00,1200.0,WeatherDisplay:10.37,2013-06-05 15:20:00,
2013-06-05 11:25:00,68.4,43.7,30.12,ESE,112,6.0,8.1,41,0.00,CLR,OVC,0.00,1200.0,WeatherDisplay:10.37,2013-06-05 15:25:00,
2013-06-05 11:30:00,68.9,44.2,30.12,SE,135,5.6,8.1,41,0.00,CLR,OVC,0.00,1300.0,WeatherDisplay:10.37,2013-06-05 15:30:00,
2013-06-05 11:35:00,69.3,44.5,30.12,SSE,158,4.7,5.8,41,0.00,CLR,OVC,0.00,1300.0,WeatherDisplay:10.37,2013-06-05 15:35:00,
2013-06-05 11:40:00,69.6,44.9,30.12,NNE,22,3.6,5.8,41,0.00,CLR,OVC,0.00,1300.0,WeatherDisplay:10.37,2013-06-05 15:40:00,
2013-06-05 11:45:00,69.4,42.7,30.12,NNE,22,4.9,8.1,38,0.00,CLR,OVC,0.00,1400.0,WeatherDisplay:10.37,2013-06-05 15:45:00,
2013-06-05 11:50:00,69.6,42.9,30.12,NE,45,4.7,7.4,38,0.00,CLR,OVC,0.00,1400.0,WeatherDisplay:10.37,2013-06-05 15:50:00,
2013-06-05 11:55:00,69.4,42.7,30.12,ENE,68,6.7,8.1,38,0.00,CLR,OVC,0.00,300.0,WeatherDisplay:10.37,2013-06-05 15:55:00,
2013-06-05 12:00:00,69.4,42.7,30.12,ESE,112,6.9,9.2,38,0.00,CLR,OVC,0.00,1400.0,WeatherDisplay:10.37,2013-06-05 16:00:00,
2013-06-05 12:05:00,69.8,43.0,30.12,East,90,6.9,6.9,38,0.00,CLR,OVC,0.00,1400.0,WeatherDisplay:10.37,2013-06-05 16:05:00,
2013-06-05 12:10:00,70.3,43.5,30.12,ENE,68,5.9,8.1,38,0.00,CLR,OVC,0.00,1400.0,WeatherDisplay:10.37,2013-06-05 16:10:00,
2013-06-05 12:15:00,70.7,43.8,30.12,SE,135,3.6,5.8,38,0.00,CLR,OVC,0.00,1400.0,WeatherDisplay:10.37,2013-06-05 16:15:00,
2013-06-05 12:20:00,70.7,43.8,30.12,ESE,112,3.8,5.8,38,0.00,CLR,OVC,0.00,1300.0,WeatherDisplay:10.37,2013-06-05 16:20:00,
2013-06-05 12:25:00,71.1,44.2,30.12,SSE,158,6.4,6.4,38,0.00,CLR,OVC,0.00,1500.0,WeatherDisplay:10.37,2013-06-05 16:25:00,
2013-06-05 12:30:00,71.4,44.5,30.12,ENE,68,4.5,5.8,38,0.00,CLR,OVC,0.00,1500.0,WeatherDisplay:10.37,2013-06-05 16:30:00,
2013-06-05 12:35:00,71.1,44.2,30.09,SE,135,7.4,8.1,38,0.00,CLR,OVC,0.00,1500.0,WeatherDisplay:10.37,2013-06-05 16:35:00,
2013-06-05 12:40:00,71.2,44.3,30.09,SSE,158,5.6,8.1,38,0.00,CLR,OVC,0.00,1400.0,WeatherDisplay:10.37,2013-06-05 16:40:00,
2013-06-05 12:45:00,71.2,44.3,30.09,ENE,68,2.9,5.8,38,0.00,CLR,OVC,0.00,1100.0,WeatherDisplay:10.37,2013-06-05 16:45:00,
2013-06-05 12:50:00,71.1,44.2,30.12,NNE,22,4.3,6.9,38,0.00,CLR,OVC,0.00,1500.0,WeatherDisplay:10.37,2013-06-05 16:50:00,
2013-06-05 12:55:00,71.1,44.2,30.12,NE,45,3.8,5.6,38,0.00,CLR,OVC,0.00,1600.0,WeatherDisplay:10.37,2013-06-05 16:55:00,
2013-06-05 13:00:00,71.2,44.3,30.12,ENE,68,7.6,9.2,38,0.00,CLR,OVC,0.00,1600.0,WeatherDisplay:10.37,2013-06-05 17:00:00,
2013-06-05 13:05:00,71.2,44.3,30.12,SE,135,7.4,9.2,38,0.00,CLR,OVC,0.00,1500.0,WeatherDisplay:10.37,2013-06-05 17:05:00,
2013-06-05 13:10:00,71.4,44.5,30.12,ENE,68,5.4,10.2,38,0.00,CLR,OVC,0.00,1600.0,WeatherDisplay:10.37,2013-06-05 17:10:00,
2013-06-05 13:15:00,71.4,44.4,30.12,ENE,73,7.0,13.0,38,0.00,CLR,OVC,0.00,0.0,WeatherDisplay:10.37,2013-06-05 17:15:00,
2013-06-05 13:20:00,71.2,44.3,30.12,ENE,68,6.2,7.1,38,0.00,CLR,OVC,0.00,1000.0,WeatherDisplay:10.37,2013-06-05 17:20:00,
2013-06-05 13:25:00,71.2,44.3,30.12,ENE,64,6.0,11.0,38,0.00,CLR,OVC,0.00,0.0,WeatherDisplay:10.37,2013-06-05 17:25:00,
2013-06-05 13:30:00,71.6,43.9,30.12,ENE,68,6.0,10.5,37,0.00,CLR,OVC,0.00,800.0,WeatherDisplay:10.37,2013-06-05 17:30:00,
2013-06-05 13:35:00,71.8,44.1,30.12,SSE,158,6.4,9.2,37,0.00,CLR,OVC,0.00,1000.0,WeatherDisplay:10.37,2013-06-05 17:35:00,
2013-06-05 13:40:00,72.1,44.4,30.12,ESE,112,3.1,4.6,37,0.00,CLR,OVC,0.00,0.0,WeatherDisplay:10.37,2013-06-05 17:40:00,
2013-06-05 13:45:00,72.7,44.9,30.12,ESE,112,7.8,9.2,37,0.00,CLR,OVC,0.00,0.0,WeatherDisplay:10.37,2013-06-05 17:45:00,
2013-06-05 13:50:00,73.0,45.2,30.12,ESE,111,5.0,12.0,37,0.00,CLR,OVC,0.00,0.0,WeatherDisplay:10.37,2013-06-05 17:50:00,
2013-06-05 13:55:00,73.2,45.4,30.12,SSE,158,2.6,4.6,37,0.00,CLR,OVC,0.00,1600.0,WeatherDisplay:10.37,2013-06-05 17:55:00,
2013-06-05 14:00:00,73.0,45.2,30.12,ESE,112,7.8,10.4,37,0.00,CLR,OVC,0.00,1300.0,WeatherDisplay:10.37,2013-06-05 18:00:00,
2013-06-05 14:05:00,73.0,45.2,30.09,SSE,158,2.9,4.6,37,0.00,CLR,OVC,0.00,1600.0,WeatherDisplay:10.37,2013-06-05 18:05:00,
2013-06-05 14:10:00,73.0,45.2,30.09,ENE,68,6.7,8.1,37,0.00,CLR,OVC,0.00,1400.0,WeatherDisplay:10.37,2013-06-05 18:10:00,
2013-06-05 14:15:00,72.9,45.1,30.09,ESE,112,5.4,8.1,37,0.00,CLR,OVC,0.00,1600.0,WeatherDisplay:10.37,2013-06-05 18:15:00,
2013-06-05 14:20:00,73.0,45.2,30.09,SE,135,6.2,10.4,37,0.00,CLR,OVC,0.00,1500.0,WeatherDisplay:10.37,2013-06-05 18:20:00,
2013-06-05 14:25:00,73.0,45.2,30.09,East,90,4.3,5.8,37,0.00,CLR,OVC,0.00,1400.0,WeatherDisplay:10.37,2013-06-05 18:25:00,
2013-06-05 14:30:00,73.0,45.2,30.09,ESE,112,5.4,5.8,37,0.00,CLR,OVC,0.00,1000.0,WeatherDisplay:10.37,2013-06-05 18:30:00,
2013-06-05 14:35:00,73.0,45.2,30.09,East,90,5.4,6.9,37,0.00,CLR,OVC,0.00,1500.0,WeatherDisplay:10.37,2013-06-05 18:35:00,
2013-06-05 14:40:00,73.2,45.4,30.09,ESE,112,7.4,8.1,37,0.00,CLR,OVC,0.00,1600.0,WeatherDisplay:10.37,2013-06-05 18:40:00,
2013-06-05 14:45:00,73.4,45.5,30.09,ESE,112,3.8,10.2,37,0.00,CLR,OVC,0.00,1400.0,WeatherDisplay:10.37,2013-06-05 18:45:00,
2013-06-05 14:50:00,73.4,45.5,30.09,SSE,158,6.4,6.9,37,0.00,CLR,OVC,0.00,1400.0,WeatherDisplay:10.37,2013-06-05 18:50:00,
2013-06-05 14:55:00,73.6,45.7,30.09,SSE,158,6.4,8.1,37,0.00,CLR,OVC,0.00,1400.0,WeatherDisplay:10.37,2013-06-05 18:55:00,
2013-06-05 15:00:00,73.6,45.7,30.09,NE,45,5.4,6.9,37,0.00,CLR,OVC,0.00,1300.0,WeatherDisplay:10.37,2013-06-05 19:00:00,
2013-06-05 15:05:00,73.8,45.9,30.06,ENE,68,5.9,8.1,37,0.00,CLR,OVC,0.00,1300.0,WeatherDisplay:10.37,2013-06-05 19:05:00,
2013-06-05 15:10:00,73.6,45.7,30.06,ENE,68,1.6,3.5,37,0.00,CLR,OVC,0.00,1200.0,WeatherDisplay:10.37,2013-06-05 19:10:00,
2013-06-05 15:15:00,73.4,45.5,30.06,ENE,68,5.6,7.1,37,0.00,CLR,OVC,0.00,1400.0,WeatherDisplay:10.37,2013-06-05 19:15:00,
2013-06-05 15:20:00,73.2,45.4,30.06,NE,45,7.8,10.4,37,0.00,CLR,OVC,0.00,1300.0,WeatherDisplay:10.37,2013-06-05 19:20:00,
2013-06-05 15:25:00,73.2,45.4,30.06,ENE,68,6.9,9.2,37,0.00,CLR,OVC,0.00,1200.0,WeatherDisplay:10.37,2013-06-05 19:25:00,
2013-06-05 15:31:00,73.4,45.5,30.06,NNE,22,3.8,9.2,37,0.00,CLR,OVC,0.00,1200.0,WeatherDisplay:10.37,2013-06-05 19:31:00,
2013-06-05 15:36:00,73.2,45.4,30.03,ENE,68,8.5,9.2,37,0.00,CLR,OVC,0.00,1200.0,WeatherDisplay:10.37,2013-06-05 19:36:00,
2013-06-05 15:41:00,73.0,45.2,30.03,SE,135,3.3,4.6,37,0.00,CLR,OVC,0.00,1200.0,WeatherDisplay:10.37,2013-06-05 19:41:00,
2013-06-05 15:46:00,73.2,45.4,30.03,ENE,68,4.5,5.8,37,0.00,CLR,OVC,0.00,1100.0,WeatherDisplay:10.37,2013-06-05 19:46:00,
2013-06-05 15:51:00,73.2,45.4,30.06,ENE,68,4.7,5.8,37,0.00,CLR,OVC,0.00,1100.0,WeatherDisplay:10.37,2013-06-05 19:51:00,
2013-06-05 15:56:00,73.0,45.2,30.06,ENE,68,4.7,5.8,37,0.00,CLR,OVC,0.00,1100.0,WeatherDisplay:10.37,2013-06-05 19:56:00,
2013-06-05 16:01:00,73.0,45.2,30.06,NE,45,4.9,7.6,37,0.00,CLR,OVC,0.00,1000.0,WeatherDisplay:10.37,2013-06-05 20:01:00,
2013-06-05 16:06:00,72.9,45.1,30.06,East,90,6.2,9.2,37,0.00,CLR,OVC,0.00,1000.0,WeatherDisplay:10.37,2013-06-05 20:06:00,
2013-06-05 16:11:00,72.9,45.1,30.06,East,90,5.6,6.9,37,0.00,CLR,OVC,0.00,1000.0,WeatherDisplay:10.37,2013-06-05 20:11:00,
2013-06-05 16:16:00,73.0,45.2,30.06,ENE,68,3.3,8.7,37,0.00,CLR,OVC,0.00,1000.0,WeatherDisplay:10.37,2013-06-05 20:16:00,
2013-06-05 16:21:00,73.2,45.4,30.06,ENE,68,2.9,4.6,37,0.00,CLR,OVC,0.00,900.0,WeatherDisplay:10.37,2013-06-05 20:21:00,
2013-06-05 16:26:00,73.0,45.2,30.06,ENE,68,7.4,10.5,37,0.00,CLR,OVC,0.00,900.0,WeatherDisplay:10.37,2013-06-05 20:26:00,
2013-06-05 16:31:00,72.9,45.1,30.06,North,0,8.7,10.4,37,0.00,CLR,OVC,0.00,900.0,WeatherDisplay:10.37,2013-06-05 20:31:00,
2013-06-05 16:36:00,72.7,44.9,30.06,NE,45,6.9,10.0,37,0.00,CLR,OVC,0.00,800.0,WeatherDisplay:10.37,2013-06-05 20:36:00,
2013-06-05 16:41:00,72.7,44.9,30.06,ENE,68,4.0,9.8,37,0.00,CLR,OVC,0.00,800.0,WeatherDisplay:10.37,2013-06-05 20:41:00,
2013-06-05 16:46:00,72.5,44.7,30.06,NE,45,9.4,10.4,37,0.00,CLR,OVC,0.00,800.0,WeatherDisplay:10.37,2013-06-05 20:46:00,
2013-06-05 16:51:00,72.7,44.9,30.06,ENE,68,4.9,6.9,37,0.00,CLR,OVC,0.00,700.0,WeatherDisplay:10.37,2013-06-05 20:51:00,
2013-06-05 16:56:00,72.7,44.9,30.06,NNE,22,3.1,4.6,37,0.00,CLR,OVC,0.00,700.0,WeatherDisplay:10.37,2013-06-05 20:56:00,
2013-06-05 17:01:00,72.9,45.1,30.06,NNE,22,5.6,6.9,37,0.00,CLR,OVC,0.00,700.0,WeatherDisplay:10.37,2013-06-05 21:01:00,
2013-06-05 17:07:00,72.9,45.1,30.06,ESE,112,6.4,8.1,37,0.00,CLR,OVC,0.00,600.0,WeatherDisplay:10.37,2013-06-05 21:07:00,
2013-06-05 17:12:00,73.0,45.2,30.06,NE,45,1.4,4.6,37,0.00,CLR,OVC,0.00,600.0,WeatherDisplay:10.37,2013-06-05 21:12:00,
2013-06-05 17:17:00,73.0,45.2,30.06,ENE,68,4.0,6.4,37,0.00,CLR,OVC,0.00,300.0,WeatherDisplay:10.37,2013-06-05 21:17:00,
2013-06-05 17:22:00,73.0,45.2,30.03,NE,45,5.9,6.9,37,0.00,CLR,OVC,0.00,300.0,WeatherDisplay:10.37,2013-06-05 21:22:00,
2013-06-05 17:27:00,72.9,45.1,30.03,NE,45,6.7,6.9,37,0.00,CLR,OVC,0.00,300.0,WeatherDisplay:10.37,2013-06-05 21:27:00,
2013-06-05 17:32:00,72.7,44.9,30.03,ENE,68,4.7,6.9,37,0.00,CLR,OVC,0.00,300.0,WeatherDisplay:10.37,2013-06-05 21:32:00,
2013-06-05 17:37:00,72.7,44.9,30.06,SE,135,2.4,6.9,37,0.00,CLR,OVC,0.00,300.0,WeatherDisplay:10.37,2013-06-05 21:37:00,
2013-06-05 17:42:00,72.5,44.7,30.06,ESE,112,6.4,10.4,37,0.00,CLR,OVC,0.00,300.0,WeatherDisplay:10.37,2013-06-05 21:42:00,
2013-06-05 17:47:00,72.5,44.7,30.06,NE,45,5.4,6.9,37,0.00,CLR,OVC,0.00,300.0,WeatherDisplay:10.37,2013-06-05 21:47:00,
2013-06-05 17:52:00,72.7,44.9,30.03,ENE,68,5.9,8.1,37,0.00,CLR,OVC,0.00,300.0,WeatherDisplay:10.37,2013-06-05 21:52:00,
2013-06-05 17:57:00,72.9,45.1,30.03,ENE,68,2.9,3.5,37,0.00,CLR,OVC,0.00,200.0,WeatherDisplay:10.37,2013-06-05 21:57:00,
2013-06-05 18:02:00,72.7,44.9,30.03,East,90,9.4,12.7,37,0.00,CLR,OVC,0.00,200.0,WeatherDisplay:10.37,2013-06-05 22:02:00,
2013-06-05 18:07:00,72.5,44.7,30.03,NE,45,6.0,7.1,37,0.00,CLR,OVC,0.00,200.0,WeatherDisplay:10.37,2013-06-05 22:07:00,
2013-06-05 18:12:00,72.3,44.6,30.03,ENE,68,6.7,8.7,37,0.00,CLR,OVC,0.00,300.0,WeatherDisplay:10.37,2013-06-05 22:12:00,
2013-06-05 18:17:00,72.3,44.6,30.03,ENE,68,1.6,3.5,37,0.00,CLR,OVC,0.00,200.0,WeatherDisplay:10.37,2013-06-05 22:17:00,
2013-06-05 18:22:00,72.5,44.7,30.03,ENE,68,4.7,8.1,37,0.00,CLR,OVC,0.00,200.0,WeatherDisplay:10.37,2013-06-05 22:22:00,
2013-06-05 18:27:00,72.1,44.4,30.03,NE,45,7.8,10.4,37,0.00,CLR,OVC,0.00,200.0,WeatherDisplay:10.37,2013-06-05 22:27:00,
2013-06-05 18:32:00,72.0,44.3,30.03,ENE,68,7.1,9.2,37,0.00,CLR,OVC,0.00,200.0,WeatherDisplay:10.37,2013-06-05 22:32:00,
2013-06-05 18:37:00,71.8,44.1,30.03,NE,45,5.9,8.1,37,0.00,CLR,OVC,0.00,200.0,WeatherDisplay:10.37,2013-06-05 22:37:00,
2013-06-05 18:42:00,71.8,44.1,30.03,East,90,3.1,5.8,37,0.00,CLR,OVC,0.00,100.0,WeatherDisplay:10.37,2013-06-05 22:42:00,
2013-06-05 18:47:00,71.6,43.9,30.03,ENE,68,6.7,8.1,37,0.00,CLR,OVC,0.00,100.0,WeatherDisplay:10.37,2013-06-05 22:47:00,
2013-06-05 18:52:00,71.4,44.5,30.00,ENE,68,3.8,8.1,38,0.00,CLR,OVC,0.00,100.0,WeatherDisplay:10.37,2013-06-05 22:52:00,
2013-06-05 18:57:00,71.2,44.3,30.00,SSE,158,4.9,6.9,38,0.00,CLR,OVC,0.00,100.0,WeatherDisplay:10.37,2013-06-05 22:57:00,
2013-06-05 19:02:00,71.2,44.3,30.00,ESE,112,4.9,6.4,38,0.00,CLR,OVC,0.00,100.0,WeatherDisplay:10.37,2013-06-05 23:02:00,
2013-06-05 19:07:00,71.2,44.3,30.00,SE,135,4.7,6.9,38,0.00,CLR,OVC,0.00,200.0,WeatherDisplay:10.37,2013-06-05 23:07:00,
2013-06-05 19:12:00,71.1,44.2,30.00,SSE,158,4.9,8.1,38,0.00,CLR,OVC,0.00,100.0,WeatherDisplay:10.37,2013-06-05 23:12:00,
2013-06-05 19:17:00,70.9,44.0,30.00,SE,135,4.5,5.8,38,0.00,CLR,OVC,0.00,100.0,WeatherDisplay:10.37,2013-06-05 23:17:00,
2013-06-05 19:22:00,70.7,43.8,30.00,SSE,158,5.6,8.1,38,0.00,CLR,OVC,0.00,100.0,WeatherDisplay:10.37,2013-06-05 23:22:00,
2013-06-05 19:27:00,70.3,43.5,30.00,SSE,158,4.9,6.4,38,0.00,CLR,OVC,0.00,100.0,WeatherDisplay:10.37,2013-06-05 23:27:00,
2013-06-05 19:32:00,70.0,43.2,30.00,SE,135,4.0,5.8,38,0.00,CLR,OVC,0.00,100.0,WeatherDisplay:10.37,2013-06-05 23:32:00,
2013-06-05 19:37:00,70.0,43.2,30.00,ESE,112,4.9,4.9,38,0.00,CLR,OVC,0.00,100.0,WeatherDisplay:10.37,2013-06-05 23:37:00,
2013-06-05 19:42:00,69.8,43.0,30.00,SSE,158,4.5,6.9,38,0.00,CLR,OVC,0.00,100.0,WeatherDisplay:10.37,2013-06-05 23:42:00,
2013-06-05 19:47:00,69.6,42.9,30.00,SE,135,4.3,5.8,38,0.00,CLR,OVC,0.00,100.0,WeatherDisplay:10.37,2013-06-05 23:47:00,
2013-06-05 19:52:00,69.6,42.9,30.00,SSE,158,2.9,5.8,38,0.00,CLR,OVC,0.00,100.0,WeatherDisplay:10.37,2013-06-05 23:52:00,
2013-06-05 19:57:00,69.4,42.7,30.00,SSE,158,6.7,8.1,38,0.00,CLR,OVC,0.00,0.0,WeatherDisplay:10.37,2013-06-05 23:57:00,
2013-06-05 20:02:00,69.1,42.4,30.00,SE,135,4.3,5.8,38,0.00,CLR,OVC,0.00,0.0,WeatherDisplay:10.37,2013-06-06 00:02:00,
2013-06-05 20:07:00,68.7,42.1,30.00,ESE,112,3.6,4.6,38,0.00,CLR,OVC,0.00,0.0,WeatherDisplay:10.37,2013-06-06 00:07:00,
2013-06-05 20:12:00,68.5,43.9,30.00,East,90,3.6,3.6,41,0.00,CLR,OVC,0.00,0.0,WeatherDisplay:10.37,2013-06-06 00:12:00,
2013-06-05 20:17:00,68.4,43.7,30.00,SE,135,2.9,3.5,41,0.00,CLR,OVC,0.00,0.0,WeatherDisplay:10.37,2013-06-06 00:17:00,
2013-06-05 20:22:00,68.2,43.6,30.00,SSE,158,2.9,4.6,41,0.00,CLR,OVC,0.00,0.0,WeatherDisplay:10.37,2013-06-06 00:22:00,
2013-06-05 20:27:00,68.2,43.6,30.00,SSE,158,2.9,5.8,41,0.00,CLR,OVC,0.00,0.0,WeatherDisplay:10.37,2013-06-06 00:27:00,
2013-06-05 20:32:00,68.0,43.4,30.00,SE,135,2.9,4.6,41,0.00,CLR,OVC,0.00,0.0,WeatherDisplay:10.37,2013-06-06 00:32:00,
2013-06-05 20:37:00,67.8,43.2,30.00,SE,135,2.9,4.6,41,0.00,CLR,OVC,0.00,0.0,WeatherDisplay:10.37,2013-06-06 00:37:00,
2013-06-05 20:43:00,67.6,43.1,30.00,SE,135,2.0,3.3,41,0.00,CLR,OVC,0.00,0.0,WeatherDisplay:10.37,2013-06-06 00:43:00,
2013-06-05 20:48:00,67.5,42.9,29.97,ESE,112,3.1,4.6,41,0.00,CLR,OVC,0.00,0.0,WeatherDisplay:10.37,2013-06-06 00:48:00,
2013-06-05 20:53:00,67.3,42.8,29.97,SSE,158,1.6,2.3,41,0.00,CLR,OVC,0.00,0.0,WeatherDisplay:10.37,2013-06-06 00:53:00,
2013-06-05 20:58:00,67.1,42.6,29.97,SE,135,1.2,2.3,41,0.00,CLR,OVC,0.00,0.0,WeatherDisplay:10.37,2013-06-06 00:58:00,
2013-06-05 21:03:00,66.9,42.4,30.00,SE,135,0.0,0.0,41,0.00,CLR,OVC,0.00,0.0,WeatherDisplay:10.37,2013-06-06 01:03:00,
2013-06-05 21:08:00,66.6,42.1,30.00,SE,135,0.0,0.0,41,0.00,CLR,OVC,0.00,0.0,WeatherDisplay:10.37,2013-06-06 01:08:00,
2013-06-05 21:13:00,66.4,42.0,30.00,ESE,112,0.0,0.0,41,0.00,CLR,OVC,0.00,0.0,WeatherDisplay:10.37,2013-06-06 01:13:00,
2013-06-05 21:18:00,66.2,41.8,30.00,NNW,338,0.0,0.0,41,0.00,CLR,OVC,0.00,0.0,WeatherDisplay:10.37,2013-06-06 01:18:00,
2013-06-05 21:23:00,65.8,41.5,30.00,NW,315,0.0,0.0,41,0.00,CLR,OVC,0.00,0.0,WeatherDisplay:10.37,2013-06-06 01:23:00,
2013-06-05 21:28:00,65.7,41.3,30.00,NW,315,0.0,0.0,41,0.00,CLR,OVC,0.00,0.0,WeatherDisplay:10.37,2013-06-06 01:28:00,
2013-06-05 21:33:00,65.3,42.8,30.00,NW,315,0.0,0.0,44,0.00,CLR,OVC,0.00,0.0,WeatherDisplay:10.37,2013-06-06 01:33:00,
2013-06-05 21:38:00,64.9,42.5,30.00,NW,315,0.0,0.0,44,0.00,CLR,OVC,0.00,0.0,WeatherDisplay:10.37,2013-06-06 01:38:00,
2013-06-05 21:43:00,64.6,42.2,30.00,NW,315,0.0,0.0,44,0.00,CLR,OVC,0.00,0.0,WeatherDisplay:10.37,2013-06-06 01:43:00,
2013-06-05 21:48:00,64.4,42.0,30.00,NW,315,0.0,0.0,44,0.00,CLR,OVC,0.00,0.0,WeatherDisplay:10.37,2013-06-06 01:48:00,
2013-06-05 21:53:00,64.2,42.4,30.00,NNE,22,0.0,0.0,45,0.00,CLR,OVC,0.00,0.0,WeatherDisplay:10.37,2013-06-06 01:53:00,
2013-06-05 21:58:00,63.9,42.1,30.00,NNE,22,0.0,0.0,45,0.00,CLR,OVC,0.00,0.0,WeatherDisplay:10.37,2013-06-06 01:58:00,
2013-06-05 22:03:00,63.7,41.9,30.03,NE,45,0.0,0.0,45,0.00,CLR,OVC,0.00,0.0,WeatherDisplay:10.37,2013-06-06 02:03:00,
2013-06-05 22:08:00,63.5,41.8,30.03,ENE,68,0.0,0.0,45,0.00,CLR,OVC,0.00,0.0,WeatherDisplay:10.37,2013-06-06 02:08:00,
2013-06-05 22:13:00,63.1,42.0,30.03,ENE,68,0.0,0.0,46,0.00,CLR,OVC,0.00,0.0,WeatherDisplay:10.37,2013-06-06 02:13:00,
2013-06-05 22:18:00,63.0,41.8,30.03,ENE,68,0.0,0.0,46,0.00,CLR,OVC,0.00,0.0,WeatherDisplay:10.37,2013-06-06 02:18:00,
2013-06-05 22:23:00,62.8,41.7,30.03,ENE,68,0.0,0.0,46,0.00,CLR,OVC,0.00,0.0,WeatherDisplay:10.37,2013-06-06 02:23:00,
2013-06-05 22:28:00,62.4,41.9,30.03,SSE,158,0.0,0.0,47,0.00,CLR,OVC,0.00,0.0,WeatherDisplay:10.37,2013-06-06 02:28:00,
2013-06-05 22:33:00,62.2,41.7,30.00,NE,45,0.0,0.0,47,0.00,CLR,OVC,0.00,0.0,WeatherDisplay:10.37,2013-06-06 02:33:00,
2013-06-05 22:38:00,61.9,41.4,30.00,NE,45,0.0,0.0,47,0.00,CLR,OVC,0.00,0.0,WeatherDisplay:10.37,2013-06-06 02:38:00,
2013-06-05 22:43:00,61.7,41.8,30.00,SE,135,0.0,0.0,48,0.00,CLR,OVC,0.00,0.0,WeatherDisplay:10.37,2013-06-06 02:43:00,
2013-06-05 22:48:00,61.5,41.6,30.03,ENE,68,0.0,0.0,48,0.00,CLR,OVC,0.00,0.0,WeatherDisplay:10.37,2013-06-06 02:48:00,
2013-06-05 22:53:00,61.3,41.5,30.03,SSE,158,0.0,0.0,48,0.00,CLR,OVC,0.00,0.0,WeatherDisplay:10.37,2013-06-06 02:53:00,
2013-06-05 22:58:00,61.3,41.5,30.03,ENE,68,0.0,0.9,48,0.00,CLR,OVC,0.00,0.0,WeatherDisplay:10.37,2013-06-06 02:58:00,
2013-06-05 23:03:00,61.3,42.0,30.00,NNE,22,0.0,0.0,49,0.00,CLR,OVC,0.00,0.0,WeatherDisplay:10.37,2013-06-06 03:03:00,
2013-06-05 23:08:00,61.0,41.7,30.00,NNE,22,1.4,2.3,49,0.00,CLR,OVC,0.00,0.0,WeatherDisplay:10.37,2013-06-06 03:08:00,
2013-06-05 23:13:00,60.4,41.7,30.00,ENE,68,0.0,1.2,50,0.00,CLR,OVC,0.00,0.0,WeatherDisplay:10.37,2013-06-06 03:13:00,
2013-06-05 23:18:00,60.4,41.2,30.00,NE,45,0.0,0.0,49,0.00,CLR,OVC,0.00,0.0,WeatherDisplay:10.37,2013-06-06 03:18:00,
2013-06-05 23:23:00,60.4,41.2,30.00,ENE,68,0.0,0.0,49,0.00,CLR,OVC,0.00,0.0,WeatherDisplay:10.37,2013-06-06 03:23:00,
2013-06-05 23:28:00,60.6,40.8,30.00,SSE,158,0.0,0.0,48,0.00,CLR,OVC,0.00,0.0,WeatherDisplay:10.37,2013-06-06 03:28:00,
2013-06-05 23:33:00,60.4,41.2,30.00,East,90,0.0,0.0,49,0.00,CLR,OVC,0.00,0.0,WeatherDisplay:10.37,2013-06-06 03:33:00,
2013-06-05 23:38:00,60.3,41.0,30.00,ENE,68,0.0,0.0,49,0.00,CLR,OVC,0.00,0.0,WeatherDisplay:10.37,2013-06-06 03:38:00,
2013-06-05 23:43:00,60.3,41.0,30.00,ENE,68,0.0,0.0,49,0.00,CLR,OVC,0.00,0.0,WeatherDisplay:10.37,2013-06-06 03:43:00,
2013-06-05 23:48:00,60.3,41.0,30.00,ENE,68,0.9,0.0,49,0.00,CLR,OVC,0.00,0.0,WeatherDisplay:10.37,2013-06-06 03:48:00,
2013-06-05 23:53:00,60.3,41.0,30.00,NE,45,0.0,1.2,49,0.00,CLR,OVC,0.00,0.0,WeatherDisplay:10.37,2013-06-06 03:53:00,
2013-06-05 23:58:00,60.3,41.0,30.00,ENE,68,0.9,1.4,49,0.00,CLR,OVC,0.00,0.0,WeatherDisplay:10.37,2013-06-06 03:58:00,